{"data":{"norad_id":43446,"epoch":"2026-05-22T22:45:44.165376Z","epoch_age_seconds":255767,"freshness":"STALE","line1":"1 43446U 18036F   26142.94842784  .00000004  00000+0  00000+0 0  9992","line2":"2 43446   7.0560  67.2228 0010642 166.5711   1.2727  1.02119637 26667","mean_motion":1.02119637,"eccentricity":0.0010642,"inclination_deg":7.056,"raan_deg":67.2228,"arg_perigee_deg":166.5711,"mean_anomaly_deg":1.2727,"bstar":0,"rev_number":2666,"period_min":1410.1107703702,"perigee_km":35232.073304559,"apogee_km":35320.730825505,"semimajor_km":41654.539065032,"source":"CELESTRAK","updated_at":"2026-05-25T13:37:55.827856Z"}}